OKEAN-0
1 25860U 99039A 11313.99228848 .00001120 00000-0 17811-3 0 04833
2 25860 097.9047 276.5937 0000556 079.4737 280.6534 14.73927997662135
NOAA-16
1 26536U 00055A 11313.77113698 .00000150 00000-0 10567-3 0 04963
2 26536 099.1266 347.1704 0010439 347.6606 012.4301 14.12665599573916
NOAA-17
1 27453U 02032A 11313.73355991 .00000153 00000-0 84091-4 0 04809
2 27453 098.3636 346.6438 0012709 083.1426 277.1199 14.24341701487377
NOAA-18
1 28654U 05018A 11313.76962146 .00000519 00000-0 31075-3 0 09577
2 28654 099.0154 265.4022 0014979 057.0072 303.2520 14.11547208333464
NOAA-19
1 33591U 09005A 11313.79907159 .00000388 00000-0 23932-3 0 01488
2 33591 098.8408 251.5910 0013367 285.9054 074.0642 14.11237486141923
HUBBLE
1 20580U 90037B 11313.95063566 .00002986 00000-0 21124-3 0 8844
2 20580 028.4689 144.0809 0003298 231.7151 128.3185 15.01768669981580
ISS
1 25544U 98067A 11314.94560883 .00028742 00000-0 35067-3 0 4096
2 25544 051.6398 142.1044 0021799 044.4356 069.1254 15.59947707743829
CO-58
1 28895U 05043F 11313.68325273 .00001531 00000-0 32548-3 0 197
2 28895 097.9438 184.2735 0018906 122.2785 238.0273 14.60282315321479
FALCON
1 30776U 07006E 11314.78938704 .00007638 00000-0 52131-3 0 2129
2 30776 035.4303 175.1458 0003056 298.2448 061.7972 15.05594164257146
MAST
1 31126U 07012K 11313.94739849 .00001102 00000-0 25689-3 0 03121
2 31126 097.8870 332.8718 0095311 076.7329 284.4478 14.53879137242260
CAPE1
1 31130U 07012P 11313.86140822 .00001127 00000-0 26725-3 0 03189
2 31130 097.8914 329.3589 0103365 088.8070 272.4970 14.52561091241783
COMPASS
1 32787U 08021E 11314.66390859 .00004433 00000-0 55114-3 0 1416
2 32787 097.8332 015.6477 0016592 060.2658 300.0223 14.82951681191265
AAUSAT2
1 32788U 08021F 11314.74284856 .00005220 00000-0 64429-3 0 1329
2 32788 097.8343 015.9991 0016326 061.5381 298.7501 14.83182836191298
DO-64
1 32789U 08021G 11313.75141274 .00007793 00000-0 94068-3 0 01482
2 32789 097.8426 016.3398 0015913 061.4040 298.8783 14.83959166191166
CO-66
1 32791U 08021J 11313.83663712 .00003461 00000-0 43592-3 0 01372
2 32791 097.8354 014.7227 0017039 062.4609 297.8314 14.82546897191087
RS-30
1 32953U 08025A 11314.63712874 .00000010 00000-0 00000 0 0 2459
2 32953 082.5010 071.6643 0019655 068.9842 291.3338 12.43016869157282
TACSAT-3
1 35001U 09028A 11313.61485440 .00076419 00000-0 98626-3 0 07572
2 35001 040.4523 005.6956 0012343 207.9902 152.0257 15.57874196139684
PHARMSAT
1 35002U 09028B 11313.54875955 .00055006 00000-0 77982-3 0 07008
2 35002 040.4708 005.4292 0016065 225.9561 133.9933 15.55404600139683
HAWKSAT1
1 35003U 09028C 11276.79285837 .02274821 58283-2 19360-2 0 8114
2 35003 040.4398 174.3672 0011414 274.3918 085.3844 16.13812532134570
CP6
1 35004U 09028D 11247.64656856 .16152067 73217-5 10011-2 0 7842
2 35004 040.4403 342.9642 0002956 038.0069 322.2231 16.41039951130139
METEOR-M
1 35865U 09049A 11314.73442572 .00000028 00000-0 32758-4 0 8878
2 35865 098.6881 007.8219 0002539 347.3117 012.7995 14.21845419111411
RS-38
1 35869U 09049E 11314.71602121 .00000087 00000-0 59266-4 0 8685
2 35869 098.6849 007.8290 0004520 337.9101 022.1878 14.22032134111427
ARISSAT1
1 37772U 98067CK 11314.89899601 .00180624 00000-0 11624-2 0 3032
2 37772 051.6326 138.6818 0003114 085.0349 065.2295 15.75099869 15446
SRMSAT
1 37839U 11058B 11314.89054292 .00000619 00000-0 19019-3 0 264
2 37839 019.9635 246.7055 0018985 328.1249 031.8008 14.11985316 4210
JUGNU
1 37841U 11058D 11314.85979429 .00000264 00000-0 00000 0 0 241
2 37841 019.9719 247.4841 0012391 298.8583 061.0597 14.10082857 4198
